This is the latest recevied weather packets stored in our database for station/object N7SHZ. If no packets are shown the sender has not sent any weather packets the latest 1 day(s).
| Time | Temp. | Humidity | Pressure | Rain* | Wind** | Luminosity | Snow |
|---|---|---|---|---|---|---|---|
| 1778011429 | 0° C | 99% | 1027.9 hPa | - | 3.13 m/s, 2° | 393 W/m² | - |
| 1778011125 | 0° C | 99% | 1028.1 hPa | - | 1.79 m/s, 358° | 360 W/m² | - |
| 1778010822 | 0° C | 99% | 1027.9 hPa | - | 1.79 m/s, 16° | 324 W/m² | - |
| 1778010519 | 0.56° C | 99% | 1027.9 hPa | - | 0.89 m/s, 16° | 379 W/m² | - |
| 1778010217 | 0° C | 99% | 1027.9 hPa | - | 1.79 m/s, 37° | 378 W/m² | - |
| 1778009912 | 0.56° C | 99% | 1027.8 hPa | - | 1.34 m/s, 20° | 405 W/m² | - |
| 1778009610 | 0.56° C | 99% | 1028.1 hPa | - | 2.24 m/s, 11° | 424 W/m² | - |
| 1778009307 | 1.11° C | 99% | 1027.8 hPa | - | 0 m/s | 451 W/m² | - |
| 1778009006 | 0.56° C | 99% | 1027.8 hPa | - | 1.34 m/s, 351° | 505 W/m² | - |
| 1778008703 | 1.11° C | 99% | 1027.9 hPa | - | 0.89 m/s, 33° | 644 W/m² | - |
| 1778008402 | 0.56° C | 99% | 1027.7 hPa | - | 0.89 m/s, 93° | 696 W/m² | - |
| 1778008098 | 0.56° C | 99% | 1027.9 hPa | - | 1.34 m/s, 49° | 616 W/m² | - |
| 1778007793 | 0.56° C | 99% | 1028.1 hPa | - | 1.79 m/s, 92° | 604 W/m² | - |
| 1778007489 | 0.56° C | 99% | 1027.8 hPa | - | 0.89 m/s, 121° | 731 W/m² | - |
| 1778007186 | 0.56° C | 99% | 1027.8 hPa | - | 2.24 m/s, 102° | 693 W/m² | - |
| 1778006882 | 0° C | 99% | 1027.7 hPa | - | 2.24 m/s, 114° | 645 W/m² | - |
| 1778006579 | 0° C | 99% | 1027.8 hPa | - | 3.13 m/s, 114° | 689 W/m² | - |
| 1778006276 | 0° C | 99% | 1027.9 hPa | - | 2.68 m/s, 118° | 767 W/m² | - |
| 1778005973 | 0° C | 99% | 1027.9 hPa | - | 4.02 m/s, 107° | 738 W/m² | - |
| 1778005670 | 0° C | 99% | 1027.7 hPa | - | 4.02 m/s, 105° | 616 W/m² | - |
| 1778005366 | 0° C | 99% | 1027.8 hPa | - | 2.24 m/s, 115° | 526 W/m² | - |
| 1778005063 | 0° C | 99% | 1027.9 hPa | - | 3.58 m/s, 117° | 735 W/m² | - |
| 1778004761 | -0.56° C | 99% | 1027.8 hPa | - | 4.02 m/s, 123° | 503 W/m² | - |
| 1778004457 | -0.56° C | 99% | 1027.9 hPa | - | 2.68 m/s, 105° | 319 W/m² | - |
| 1778004153 | -0.56° C | 99% | 1027.8 hPa | - | 3.58 m/s, 109° | 300 W/m² | - |
* Rain since midnight (hover to see other rain measurements)
** Current wind speed in m/s (hover to see current wind gust speed)